Regional Weather Roundup
Issued by NWS

Home | Current Version | Previous Version | Text Only | Print | Product List | Glossary On
Versions: 1 2 3 4 5 6 7 8 9 10 11 12 13 14 15 16 17 18 19 20 21 22 23 24 25 26 27 28 29 30 31 32 33 34 35 36 37 38 39 40 41 42 43 44 45 46 47 48 49 50
000
ASUS44 KBMX 050610
RWRAL

ALABAMA REGIONAL WEATHER ROUNDUP
NATIONAL WEATHER SERVICE BIRMINGHAM AL
100 AM CDT SUN JUL 05 2015

NOTE: "FAIR" INDICATES FEW OR NO CLOUDS BELOW 12,000 FEET
WITH NO SIGNIFICANT WEATHER AND/OR OBSTRUCTIONS TO VISIBILITY.

THE REMARK "TC" DENOTES TEMPERATURE IN DEGREES CELSIUS.

ALZ001>011-014-016>018-020-050700-
NORTH ALABAMA

CITY           SKY/WX    TMP DP  RH WIND       PRES   REMARKS
MUSCLE SHOALS  LGT RAIN  70  67  90 W6        30.07R
6HR MIN TEMP:  69; 6HR MAX TEMP:  77; 6HR PCP:  0.08;

HUNTSVILLE     HVY RAIN  71  67  87 W12       30.05R FOG
6HR MIN TEMP:  70; 6HR MAX TEMP:  78; 6HR PCP:  0.63;

DECATUR        LGT RAIN  69  68  96 W9        30.06R
6HR MIN TEMP:  68; 6HR MAX TEMP:  74; 6HR PCP:  0.44;

HALEYVILLE     MOCLDY    67  67 100 CALM      30.11R
6HR MIN TEMP:  66; 6HR MAX TEMP:  68; 6HR PCP:  0.71;

GADSDEN        CLOUDY    79  63  57 SW6       30.06S
6HR MIN TEMP:  79; 6HR MAX TEMP:  84;

$$

ALZ012-013-022-023-030>036-040>044-050700-
WEST CENTRAL ALABAMA

CITY           SKY/WX    TMP DP  RH WIND       PRES   REMARKS
TUSCALOOSA     CLOUDY    71  69  93 S7        30.08S
6HR MIN TEMP:  71; 6HR MAX TEMP:  72;

$$

ALZ015-024>027-033>036-040>044-050700-
CENTRAL ALABAMA

CITY           SKY/WX    TMP DP  RH WIND       PRES   REMARKS
BIRMINGHAM     CLOUDY    71  68  90 S9        30.10S
6HR MIN TEMP:  71; 6HR MAX TEMP:  75;

MONTGOMERY     MOCLDY    72  69  90 S5        30.10S
6HR MIN TEMP:  72; 6HR MAX TEMP:  73; 6HR PCP: TRACE;

SHELBY CO ARPT CLOUDY    70  68  93 SW6       30.10R
6HR MIN TEMP:  70; 6HR MAX TEMP:  72;

MAXWELL AFB    MOCLDY    71  70  95 S6        30.09S
6HR MIN TEMP:  71; 6HR MAX TEMP:  73; 6HR PCP:  0.01;

GREENVILLE     FAIR      70  68  93 CALM      30.11S
6HR MIN TEMP:  70; 6HR MAX TEMP:  72; 6HR PCP: TRACE;

$$

ALZ019-021-028-029-037-038-045>048-050700-
EAST CENTRAL ALABAMA

CITY           SKY/WX    TMP DP  RH WIND       PRES   REMARKS
ANNISTON       CLOUDY    71  67  87 W3        30.09S
6HR MIN TEMP:  70; 6HR MAX TEMP:  77; 6HR PCP:  0.01;

ALEXANDER CITY CLOUDY    72  69  89 SW5       30.12R
6HR MIN TEMP:  71; 6HR MAX TEMP:  72; 6HR PCP:  0.05;

AUBURN         CLOUDY    68  64  88 S7        30.12F
6HR MIN TEMP:  68; 6HR MAX TEMP:  70; 6HR PCP:  0.23;

$$

ALZ051>064-050700-
SOUTHWEST ALABAMA

CITY           SKY/WX    TMP DP  RH WIND       PRES   REMARKS
MOBILE         CLOUDY    73  72  96 CALM      30.10F FOG
6HR MIN TEMP:  72; 6HR MAX TEMP:  74; 6HR PCP:  0.01;

BROOKLEY FIELD CLOUDY    74  73  97 CALM      30.11S FOG
6HR MIN TEMP:  73; 6HR MAX TEMP:  75; 6HR PCP:  0.02;

EVERGREEN      CLOUDY    71  69  93 CALM      30.12S
6HR MIN TEMP:  71; 6HR MAX TEMP:  73;

$$

ALZ049-050-065>069-050700-
SOUTHEAST ALABAMA

CITY           SKY/WX    TMP DP  RH WIND       PRES   REMARKS
DOTHAN         MOCLDY    70  69  97 S6          N/A  FOG
6HR MIN TEMP:  69; 6HR MAX TEMP:  78; 6HR PCP:  0.32;

OZARK          MOCLDY    70  69  99 S3        30.10F
6HR MIN TEMP:  69; 6HR MAX TEMP:  80; 6HR PCP:  0.38;

TROY           CLOUDY    70  69  97 SW3       30.11F
6HR MIN TEMP:  70; 6HR MAX TEMP:  72; 6HR PCP:  0.04;

EUFAULA        CLOUDY    72  70  93 S3        30.10S
6HR MIN TEMP:  70; 6HR MAX TEMP:  82;

$$


USA.gov is the U.S. government's official web portal to all federal, state and local government web resources and services.